STARLINK-3953 (52559 NORAD) Tracking and Keplerian Element Data
This shows tracking and keplerian element data for the satellite.
Feedback or suggestion? Click here.
Element | Value |
Catalog | 52559 |
Name | STARLINK-3953 |
Epoch Orbit | 130 |
Epoch Day | 167.08334491 |
Epoch Year | 2022 |
RAAN | 129.0038 |
Inclination | 53.2167 |
Eccentricity | 0.0002534 |
Argument of Perigee | 14.8065 |
Mean Anonmoly | 47.9414 |
Mean Motion | 15.73239042 |
Decay Rate | 0.00029132 |
L1 | 1 52559U 22051AC 22167.08334491 .00029132 00000+0 21090-3 0 9997 |
L2 | 2 52559 53.2167 129.0038 0002534 14.8065 47.9414 15.73239042 1302 |
Live tracking and technical data element details for STARLINK-3953 (NORAD 52559). STARLINK-3953 can be tracked NOW for your location showing map with azimuth and elevation plus other details from your city location.
Track the satellite on the map from your city or location and see movement details for azimuth, elevation, latitude, longitude, range, height, and movement on the map or in text.
IsCatalogInMostPopularTable: catalog: 52559, numindb: 3
Update: records affected: 1
GetName: 52559 STARLINK-3953
Hit Count: updated at: Mon, 27 Jun 2022 04:59:47 GMT